Regional Weather Roundup
Issued by NWS

Home | Current Version | Previous Version | Graphics & Text | Print | Product List | Glossary On
Versions: 1 2 3 4 5 6 7 8 9 10 11 12 13 14 15 16 17 18 19 20 21 22 23 24 25 26 27 28 29 30 31 32 33 34 35 36 37 38 39 40 41 42 43 44 45 46 47 48 49 50
000
ASUS43 KFSD 271610
RWRSD

WEATHER ROUNDUP FOR SOUTH DAKOTA
NATIONAL WEATHER SERVICE SIOUX FALLS SD
1100 AM CDT WED JUL 27 2016

NOTE: "FAIR" INDICATES FEW OR NO CLOUDS BELOW 12,000 FEET WITH NO
SIGNIFICANT WEATHER AND/OR OBSTRUCTIONS TO VISIBILITY.


SDZ001>005-009-010-012>017-271700-
NORTHWEST AND NORTH CENTRAL SOUTH DAKOTA

CITY           SKY/WX    TMP DP  RH WIND       PRES   REMARKS
BUFFALO          N/A     67  62  84 E9        30.08R
FAITH            N/A     72  62  71 NE13      30.09F
MOBRIDGE       CLOUDY    71  62  73 N6        30.08S
$$

SDZ012>016-024>037-041>051-057-063-072>074-271700-
SOUTHWEST AND SOUTH CENTRAL SOUTH DAKOTA

CITY           SKY/WX    TMP DP  RH WIND       PRES   REMARKS
RAPID CTY ARPT CLOUDY    72  61  68 NE7       30.09F
PIERRE         SUNNY     78  64  61 N12       30.04F
CUSTER         CLOUDY    66  55  67 W6        30.22F
ELLSWORTH AFB  PTSUNNY   72  63  73 VRB3      30.09F
PHILIP         MOSUNNY   78  66  66 N9        30.06F
PINE RIDGE     MOSUNNY   71  60  68 W7        30.09F
WINNER         FAIR      82  64  54 N7        30.05S
$$

SDZ004>011-016>023-039-040-271700-
NORTHEAST SOUTH DAKOTA

CITY           SKY/WX    TMP DP  RH WIND       PRES   REMARKS
ABERDEEN       PTSUNNY   71  64  78 N13       30.05R
WATERTOWN      PTSUNNY   72  63  73 N10       30.03R
BROOKINGS      MOSUNNY   73  64  73 N12       30.01R
SISSETON         N/A     73  65  75 N8        30.01R
$$

SDZ017-020-022-023-036>040-048>070-271700-
SOUTHEAST SOUTH DAKOTA

CITY           SKY/WX    TMP DP  RH WIND       PRES   REMARKS
SIOUX FALLS    MOSUNNY   80  69  69 NW6       30.01R
HURON          SUNNY     77  65  66 N14       30.02R
CHAMBERLAIN    SUNNY     79  66  64 NW12      30.03F
MITCHELL       SUNNY     80  65  59 NW9       30.02R
YANKTON        SUNNY     79  63  57 W12       30.02R
$$

ABBREVIATIONS USED IN REMARKS
   TC - TEMPERATURE IN CELSIUS
  WCI - WIND CHILL INDEX
   HX - HEAT INDEX
  VSB - VISIBILITY





USA.gov is the U.S. government's official web portal to all federal, state and local government web resources and services.